Location: Hamilton
(37.7830°S, 175.2830°E)
Time: 20:32:06
(UTC+12:00)

Cosmos 1933 - Pass Details

Date: 24 January 2019
Orbit: 547 x 564 km, 82.5° (Epoch: 21 April)

Event Time Altitude Azimuth Distance (km) Brightness Sun altitude
Exits shadow 22:59:55 33° 313° (NW) 967 4.5 -22.9°
Maximum altitude 23:01:22 49° 260° (W) 746 4.2 -23.0°
Drops below altitude 10° 23:05:25 10° 184° (S) 1,891 6.8 -23.5°
Sets 23:07:41 0° 179° (S) 2,798 7.7 -23.8°
